Location: Dzierzno
(50.6159°N, 19.2852°E)
Time: 19:07:40
(UTC+00:00)

Daily predictions for brighter satellites

Satellite Brightness Start Highest point End
(mag) Time Altitude Azimuth Time Altitude Azimuth Time Altitude Azimuth
Cosmos 2100 Rocket 4.3 15:18:40 10° SSW 15:24:50 74° WNW 15:31:00 10° N
UNK 4.4 15:23:28 10° NNE 15:27:45 36° E 15:31:59 10° SSE
Cosmos 2221 Rocket 4.3 15:24:32 10° NNW 15:28:57 60° W 15:33:19 10° S
Meteor 1-28 Rocket 3.0 15:29:14 10° NNE 15:32:35 57° E 15:35:54 10° S
SJ-12 4.3 15:32:49 10° SE 15:36:16 34° ENE 15:39:43 10° N
Cosmos 1269 Rocket 4.0 15:33:08 10° SSW 15:38:22 72° ESE 15:43:38 10° NNE
CORIOLIS 4.1 15:34:23 10° SSE 15:39:41 65° ENE 15:44:59 10° N
IRS-1C 4.2 15:36:18 10° SE 15:41:28 54° ENE 15:46:39 10° N
BREEZE-M DEB (TANK) 3.6 15:44:45 10° SSW 15:46:51 29° SE 15:50:40 11° ENE
Cosmos 1943 Rocket 2.7 15:42:55 10° S 15:48:03 38° ESE 15:53:10 10° NE
Cosmos 2233 Rocket 4.0 15:41:55 10° S 15:48:12 76° E 15:54:32 10° NNE
ATLAS 2AS CENTAUR R/B 3.5 15:43:19 10° NW 15:49:20 31° NNE 15:54:48 12° ENE
Thor Agena Rocket 3.7 15:44:04 10° SSE 15:49:20 86° WSW 15:54:39 10° NNW
Cosmos 1725 Rocket 4.3 15:44:09 10° SSW 15:50:26 77° WNW 15:56:47 10° N
COSMO-SKYMED 1 4.2 15:50:28 12° ENE 15:51:08 12° E 15:52:52 10° ESE
ATLAS CENTAUR R/B 2.9 15:48:58 10° W 15:51:39 21° NNW 15:54:21 10° NNE
Cosmos 841 Rocket 4.4 15:47:40 10° N 15:52:07 27° NE 15:56:34 10° ESE
Resurs 01 Rocket 3.6 15:52:46 10° NE 15:52:46 10° NE 15:53:15 10° NE
Cosmos 2251 Rocket 4.5 15:49:04 10° SSE 15:53:29 28° E 15:57:57 10° NE
Cosmos 1782 Rocket 3.6 15:49:26 10° S 15:53:52 88° E 15:58:19 10° N
Cosmos 2061 Rocket 4.0 15:49:16 10° S 15:55:32 77° E 16:01:47 10° NNE
Cosmos 2082 Rocket 2.4 15:50:03 10° NNW 15:55:32 50° NE 16:00:58 10° SE
Cosmos 1300 Rocket 3.7 15:52:03 10° SSW 15:56:26 80° W 16:00:49 10° N
Cosmos 2058 3.5 15:54:10 10° N 15:57:47 32° ENE 16:01:23 10° SE
Cosmos 921 Rocket 4.4 15:55:51 10° SW 15:59:57 38° WNW 16:04:08 10° N
Cosmos 2278 Rocket 2.6 15:55:48 10° S 16:01:08 45° ESE 16:06:31 10° NE
Cosmos 1346 Rocket 4.5 16:02:57 10° NNE 16:04:11 14° NE 16:04:11 14° NE
Cosmos 468 Rocket 4.0 16:01:36 10° NNW 16:06:45 56° ENE 16:11:49 10° SE
MOS 1 Rocket 3.4 16:03:04 10° SE 16:07:14 47° ENE 16:11:36 10° N
USA 215 3.6 16:02:58 10° SE 16:09:28 70° SW 16:16:02 10° WNW
Cosmos 1975 Rocket 3.3 16:05:50 10° NNW 16:10:10 72° W 16:14:31 10° S
SAR-Lupe-1 4.0 16:06:46 10° SSE 16:10:20 87° ENE 16:13:56 10° NNW
ARIANE 5 R/B 2.5 16:06:01 10° SSE 16:10:59 90° ESE 16:16:02 10° NNW
AQUARIUS 4.0 16:07:40 10° SSE 16:12:03 68° ENE 16:16:27 10° N
Cosmos 1602 3.4 16:09:27 10° N 16:12:23 41° ENE 16:15:19 10° SSE
ATLAS 5 CENTAUR R/B 3.9 16:09:48 10° WNW 16:13:44 30° WSW 16:18:25 10° S
NOSS 3 (A) 3.4 16:14:19 10° SW 16:15:42 51° S 16:15:42 51° S
CZ-2D R/B 3.9 16:12:15 10° SE 16:16:07 39° ENE 16:20:04 10° N
Cosmos 2344 4.0 16:11:59 10° NW 16:19:22 53° NNE 16:28:28 11° ESE
SAR-Lupe-4 4.1 16:16:35 10° S 16:20:08 62° WSW 16:23:42 10° NNW
Cosmos 1190 Rocket 4.5 16:16:29 10° S 16:21:22 39° ESE 16:25:14 15° NE
Cosmos 1862 3.5 16:17:59 10° N 16:21:25 39° ENE 16:24:51 10° SE
PSLV R/B 4.1 16:18:05 10° SE 16:21:39 32° ENE 16:25:15 10° N
Cosmos 2151 Rocket 4.1 16:19:24 10° SSE 16:23:31 37° E 16:27:40 10° NNE
Geosat FO 3.9 16:24:49 14° SE 16:27:13 64° ENE 16:30:06 10° NNW
USA 281 4.1 16:24:36 19° E 16:27:43 28° NE 16:33:08 10° NNW
CZ-2D R/B 3.5 16:26:21 10° S 16:29:26 53° W 16:32:33 10° NNW
ISS -3.6 16:26:27 10° WSW 16:29:46 62° SSE 16:30:57 35° E
SKYMED 2 4.0 16:26:37 13° NNE 16:30:14 40° E 16:34:19 10° SSE
Okean 1 Rocket 3.9 16:26:42 10° SSE 16:30:28 28° E 16:31:19 27° ENE
COSMOS 2406 3.3 16:25:27 10° NNW 16:31:01 52° NE 16:36:34 10° SE
Cosmos 407 Rocket 3.4 16:26:31 10° SSW 16:31:42 89° WNW 16:36:52 10° NNE
Cosmos 1812 1.8 16:30:16 10° S 16:33:09 72° E 16:34:33 27° NNE
Cosmos 1954 Rocket 4.4 16:28:55 10° S 16:33:48 40° ESE 16:36:42 22° NE
IRS-P3 4.2 16:29:08 10° SSE 16:34:28 82° WSW 16:39:51 10° NNW
Sich 1 Rocket 4.2 16:31:49 10° SSE 16:35:53 33° E 16:37:30 26° NE
Cosmos 2026 Rocket 4.4 16:30:20 10° N 16:35:58 37° ENE 16:41:35 10° SE
SL-19 R/B 4.2 16:31:27 10° SE 16:36:29 52° ENE 16:41:34 10° N
Cosmos 1072 Rocket 4.4 16:33:09 10° S 16:39:10 62° E 16:45:11 10° NNE
Cosmos 44 Rocket 3.2 16:40:10 10° SSW 16:44:57 79° SE 16:47:37 27° NE
Cosmos 540 Rocket 4.4 16:40:03 10° NNW 16:45:01 50° WSW 16:49:56 10° S
SPOT 1/Viking Rocket 3.4 16:41:11 10° SSE 16:46:21 79° ENE 16:51:35 10° NNW
SJ 16-02 1.5 16:42:30 10° S 16:46:39 48° ESE 16:47:54 36° ENE
YAOGAN 1 2.5 16:44:01 10° SSE 16:48:12 60° ENE 16:52:25 10° N
Cosmos 1869 4.0 16:44:53 10° SSW 16:48:17 47° WNW 16:51:41 10° N
Cosmos 2297 Rocket 4.3 16:49:26 10° N 16:50:30 10° NNE 16:51:22 10° NNE
SL-16 R/B 4.0 16:45:43 10° N 16:51:21 37° WNW 16:56:59 10° WSW
Meteor 2-3 Rocket 3.8 16:48:40 10° N 16:54:16 52° ENE 16:59:45 10° SSE
Spot 4 Rocket 3.9 16:52:12 10° SSE 16:57:18 84° ENE 17:02:26 10° NNW
Nadezhda 4 Rocket 3.9 16:52:11 10° N 16:58:32 86° E 17:04:46 10° S
Aureole 3 Rocket 3.1 16:58:18 10° SSW 17:01:15 49° WNW 17:03:44 16° N
Resurs 1-3 3.4 16:58:15 10° SSE 17:02:32 78° ENE 17:06:51 10° NNW
CZ-4C R/B 3.7 16:59:38 10° WNW 17:04:02 25° N 17:06:53 19° NNE
Cosmos 1627 Rocket 4.4 17:02:39 10° N 17:08:44 59° ENE 17:14:48 10° SSE
Cosmos 304 Rocket 3.6 17:04:58 10° S 17:09:39 64° ESE 17:10:27 54° ENE
Cosmos 1400 Rocket 2.5 17:06:53 10° SSW 17:10:41 89° WNW 17:11:08 68° N
Cosmos 371 Rocket 3.2 17:06:34 10° S 17:11:18 64° ESE 17:12:04 55° ENE
Cosmos 1536 Rocket 4.0 17:07:40 10° NNW 17:12:04 62° W 17:16:24 10° S
Cosmos 2195 Rocket 4.4 17:06:06 10° N 17:12:27 76° E 17:18:46 10° SSE
Helios 1A Rocket 3.9 17:16:48 28° S 17:16:48 28° S 17:18:31 10° SSW
Okean 2 Rocket 3.0 17:13:36 10° S 17:17:59 84° W 17:20:02 31° N
NOAA 6 4.0 17:20:22 10° SSE 17:25:31 86° WSW 17:30:42 10° NNW
Geosat 3.8 17:25:22 54° SE 17:26:33 84° ENE 17:31:35 10° NNW
COSMO-SKYMED 1 2.4 17:26:49 77° NNW 17:27:01 80° WNW 17:31:08 10° SSW
Resurs 01 Rocket 3.0 17:30:11 28° N 17:30:11 28° N 17:32:21 10° N
Cosmos 1943 Rocket 3.1 17:26:21 10° SW 17:31:43 44° NW 17:35:17 20° NNE
Cosmos 841 Rocket 4.0 17:29:07 10° NNW 17:34:19 60° WSW 17:38:54 13° S
Cosmos 2251 Rocket 4.2 17:30:14 10° SW 17:35:24 52° WNW 17:38:36 23° N
Cosmos 2227 Rocket 4.5 17:37:59 10° N 17:38:42 10° N 17:38:42 10° N
Cosmos 2082 Rocket 3.8 17:34:26 10° NW 17:39:24 33° WSW 17:44:21 10° SSW
BREEZE-M DEB (TANK) 2.9 17:36:23 10° W 17:39:33 79° S 17:39:49 75° SE
ATLAS 2AS CENTAUR R/B 2.5 17:34:33 10° NW 17:41:21 69° NE 17:42:14 62° E
Cosmos 2278 Rocket 3.4 17:40:01 10° WSW 17:45:19 39° NW 17:48:33 21° N
Cosmos 1634 Rocket 4.0 17:44:52 10° S 17:57:50 - NNE 17:50:01 60° SSE
Meteor 2-1 Rocket 4.4 17:46:32 10° SSW 17:52:27 76° WNW 17:57:31 15° N
Cosmos 2369 Rocket 4.1 17:48:51 10° S 17:50:09 17° S 17:50:09 17° S
ISS -0.6 18:03:11 10° W 18:03:52 15° W 18:03:52 15° W
Cosmos 1656 Rocket 4.0 18:03:27 10° SW 18:07:59 59° SW 18:07:59 59° SW
USA 281 3.1 18:11:29 87° S 18:11:35 88° WSW 18:18:13 10° NNW
SJ 16-02 3.5 18:21:32 10° WSW 18:24:28 23° WNW 18:24:28 23° WNW
Cosmos 2344 4.4 18:26:13 10° NW 18:34:04 57° SW 18:38:34 34° S
Cosmos 2297 Rocket 4.5 18:32:05 10° NNW 18:33:09 14° N 18:33:09 14° N
CZ-4C R/B 4.2 18:48:52 10° NW 18:51:49 24° NNW 18:51:49 24° NNW
ATLAS 2AS CENTAUR R/B 4.3 19:25:54 10° NW 19:29:41 28° W 19:29:41 28° W
